KLM0955 EHAM-EGNT

Flight info

Callsign KLM0955
Flight time 0h 53m
Altitude 24000
Route BERGI L60 SOPEK L989 BODSO/N0439F340 Y70 BATLI Y250 RIMTO
Aircraft A21N/M-SDE2E3FGHIRWXY/LB1

Departure

Time 2026-04-28 09:18
Airport Amsterdam Airport Schiphol (EHAM)

Arrival

Time 2026-04-28 10:11
Airport Newcastle International Airport (EGNT)
Time Latitude Longitude Altitude Speed Heading
2026-04-28 09:06 52.30986 4.74418 2 ft 0 kts 93°
2026-04-28 09:10 52.30986 4.74420 2 ft 1 kts 93°
2026-04-28 09:10 52.30985 4.74466 2 ft 7 kts 93°
2026-04-28 09:11 52.30999 4.74548 2 ft 9 kts 33°
2026-04-28 09:11 52.31070 4.74567 2 ft 12 kts
2026-04-28 09:11 52.31173 4.74578 2 ft 17 kts
2026-04-28 09:11 52.31302 4.74588 2 ft 20 kts
2026-04-28 09:12 52.31398 4.74484 2 ft 19 kts 269°
2026-04-28 09:12 52.31426 4.74284 2 ft 18 kts 343°
2026-04-28 09:12 52.31516 4.74291 2 ft 20 kts
2026-04-28 09:12 52.31666 4.74309 2 ft 23 kts
2026-04-28 09:13 52.31836 4.74324 2 ft 26 kts
2026-04-28 09:13 52.32014 4.74308 2 ft 24 kts 318°
2026-04-28 09:13 52.32037 4.74037 1 ft 27 kts 275°
2026-04-28 09:13 52.32049 4.73705 2 ft 32 kts 273°
2026-04-28 09:14 52.32100 4.73341 2 ft 35 kts 312°
2026-04-28 09:14 52.32286 4.73078 2 ft 36 kts 319°
2026-04-28 09:14 52.32483 4.72800 2 ft 38 kts 319°
2026-04-28 09:14 52.32689 4.72506 2 ft 40 kts 313°
2026-04-28 09:15 52.32876 4.72156 2 ft 41 kts 313°
2026-04-28 09:15 52.33071 4.71796 3 ft 43 kts 311°
2026-04-28 09:15 52.33144 4.71553 2 ft 25 kts 254°
2026-04-28 09:15 52.33016 4.71335 2 ft 29 kts 222°
2026-04-28 09:16 52.32879 4.71129 2 ft 18 kts 233°
2026-04-28 09:16 52.32861 4.71014 1 ft 12 kts 265°
2026-04-28 09:16 52.32879 4.70909 1 ft 9 kts 335°
2026-04-28 09:16 52.32947 4.70899 0 ft 0 kts
2026-04-28 09:17 52.32998 4.70904 0 ft 34 kts
2026-04-28 09:17 52.33520 4.70953 2 ft 117 kts
2026-04-28 09:17 52.34579 4.71038 119 ft 175 kts
2026-04-28 09:18 52.35843 4.71142 860 ft 183 kts
2026-04-28 09:18 52.37125 4.71266 1927 ft 191 kts 12°
2026-04-28 09:18 52.38551 4.71439 2458 ft 222 kts 11°
2026-04-28 09:18 52.40182 4.71626 3075 ft 245 kts
2026-04-28 09:19 52.41916 4.71796 4084 ft 252 kts
2026-04-28 09:19 52.43668 4.71958 5245 ft 252 kts
2026-04-28 09:19 52.45432 4.72124 6267 ft 257 kts
2026-04-28 09:19 52.47241 4.72298 7133 ft 264 kts
2026-04-28 09:20 52.49102 4.72480 8008 ft 271 kts
2026-04-28 09:20 52.50991 4.72666 8942 ft 275 kts
2026-04-28 09:20 52.52927 4.72854 9918 ft 280 kts
2026-04-28 09:20 52.54900 4.73047 10707 ft 291 kts
2026-04-28 09:21 52.57016 4.73134 11071 ft 319 kts 359°
2026-04-28 09:21 52.59233 4.72050 11448 ft 349 kts 332°
2026-04-28 09:21 52.61073 4.69333 12143 ft 365 kts 309°
2026-04-28 09:21 52.62549 4.65870 12975 ft 374 kts 305°
2026-04-28 09:22 52.63989 4.62255 13802 ft 381 kts 305°
2026-04-28 09:22 52.65474 4.58568 14550 ft 389 kts 306°
2026-04-28 09:22 52.66992 4.54861 15372 ft 392 kts 306°
2026-04-28 09:22 52.68528 4.51150 16209 ft 394 kts 307°
2026-04-28 09:23 52.70065 4.47455 17033 ft 397 kts 307°
2026-04-28 09:23 52.71637 4.43690 17798 ft 401 kts 307°
2026-04-28 09:23 52.73225 4.39884 18547 ft 405 kts 307°
2026-04-28 09:23 52.74692 4.35888 19190 ft 410 kts 298°
2026-04-28 09:24 52.75847 4.31556 19842 ft 414 kts 293°
2026-04-28 09:24 52.76845 4.27083 20500 ft 418 kts 290°
2026-04-28 09:24 52.77767 4.22499 21164 ft 421 kts 289°
2026-04-28 09:24 52.78656 4.17871 21795 ft 425 kts 288°
2026-04-28 09:25 52.79548 4.13200 22421 ft 427 kts 288°
2026-04-28 09:25 52.80452 4.08511 23065 ft 429 kts 288°
2026-04-28 09:25 52.81370 4.03810 23607 ft 433 kts 289°
2026-04-28 09:25 52.82314 3.99021 23996 ft 440 kts 289°
2026-04-28 09:26 52.83273 3.94190 24418 ft 444 kts 289°
2026-04-28 09:26 52.84243 3.89310 24795 ft 449 kts 289°
2026-04-28 09:26 52.85218 3.84399 25279 ft 450 kts 289°
2026-04-28 09:26 52.86194 3.79475 25761 ft 451 kts 289°
2026-04-28 09:27 52.88154 3.69533 26548 ft 457 kts 289°
2026-04-28 09:27 52.89129 3.64567 26929 ft 460 kts 289°
2026-04-28 09:27 52.90129 3.59458 27304 ft 463 kts 289°
2026-04-28 09:28 52.91110 3.54428 27670 ft 465 kts 290°
2026-04-28 09:28 52.92110 3.49291 27857 ft 473 kts 290°
2026-04-28 09:28 52.93125 3.44067 28064 ft 478 kts 290°
2026-04-28 09:28 52.94144 3.38807 28440 ft 480 kts 290°
2026-04-28 09:29 52.95164 3.33523 28795 ft 482 kts 290°
2026-04-28 09:29 52.96188 3.28199 29137 ft 484 kts 290°
2026-04-28 09:29 52.97206 3.22878 29450 ft 487 kts 292°
2026-04-28 09:29 52.98231 3.17513 29775 ft 488 kts 292°
2026-04-28 09:30 52.99255 3.12145 30221 ft 487 kts 292°
2026-04-28 09:30 53.00276 3.06785 30631 ft 486 kts 292°
2026-04-28 09:30 53.01290 3.01436 30999 ft 486 kts 292°
2026-04-28 09:30 53.02263 2.96051 31271 ft 488 kts 291°
2026-04-28 09:31 53.03171 2.90621 31630 ft 487 kts 290°
2026-04-28 09:31 53.04043 2.85193 32038 ft 485 kts 289°
2026-04-28 09:31 53.04902 2.79783 32422 ft 483 kts 289°
2026-04-28 09:31 53.05759 2.74391 32779 ft 482 kts 289°
2026-04-28 09:32 53.06617 2.69014 33126 ft 480 kts 289°
2026-04-28 09:32 53.07477 2.63655 33445 ft 479 kts 289°
2026-04-28 09:32 53.08328 2.58365 33751 ft 478 kts 289°
2026-04-28 09:32 53.09189 2.53016 34065 ft 477 kts 290°
2026-04-28 09:33 53.10048 2.47670 34241 ft 480 kts 290°
2026-04-28 09:33 53.10911 2.42295 34355 ft 482 kts 290°
2026-04-28 09:33 53.12627 2.31521 34365 ft 481 kts 289°
2026-04-28 09:34 53.14328 2.20758 34366 ft 481 kts 289°
2026-04-28 09:34 53.16021 2.09984 34372 ft 481 kts 289°
2026-04-28 09:35 53.17703 1.99210 34376 ft 482 kts 290°
2026-04-28 09:35 53.19374 1.88439 34378 ft 483 kts 289°
2026-04-28 09:36 53.21048 1.77573 34384 ft 483 kts 289°
2026-04-28 09:36 53.22709 1.66707 34384 ft 483 kts 289°
2026-04-28 09:37 53.24362 1.55831 34360 ft 483 kts 290°
2026-04-28 09:37 53.26012 1.44907 34395 ft 487 kts 291°
2026-04-28 09:38 53.27661 1.33912 34395 ft 488 kts 290°
2026-04-28 09:38 53.29301 1.22893 34400 ft 489 kts 290°
2026-04-28 09:39 53.30931 1.11862 34400 ft 489 kts 290°
2026-04-28 09:39 53.32551 1.00821 34390 ft 489 kts 291°
2026-04-28 09:40 53.34156 0.89816 34401 ft 490 kts 291°
2026-04-28 09:40 53.35762 0.78725 34406 ft 490 kts 291°
2026-04-28 09:41 53.37358 0.67621 34406 ft 490 kts 290°
2026-04-28 09:41 53.38943 0.56507 34403 ft 491 kts 290°
2026-04-28 09:42 53.40521 0.45367 34402 ft 491 kts 291°
2026-04-28 09:42 53.42091 0.34211 34404 ft 492 kts 291°
2026-04-28 09:43 53.43648 0.23051 34400 ft 492 kts 291°
2026-04-28 09:43 53.45197 0.11868 34412 ft 492 kts 290°
2026-04-28 09:44 53.46729 0.00724 34409 ft 492 kts 290°
2026-04-28 09:44 53.48263 -0.10507 34429 ft 494 kts 291°
2026-04-28 09:45 53.49786 -0.21755 34425 ft 494 kts 291°
2026-04-28 09:45 53.51299 -0.33017 34424 ft 494 kts 290°
2026-04-28 09:46 53.52802 -0.44290 34425 ft 494 kts 290°
2026-04-28 09:46 53.54294 -0.55576 34426 ft 495 kts 290°
2026-04-28 09:47 53.55774 -0.66873 34426 ft 495 kts 290°
2026-04-28 09:47 53.57244 -0.78179 34429 ft 495 kts 290°
2026-04-28 09:48 53.58705 -0.89507 34430 ft 495 kts 290°
2026-04-28 09:48 53.60156 -1.00831 34429 ft 495 kts 290°
2026-04-28 09:49 53.61593 -1.12146 34300 ft 494 kts 290°
2026-04-28 09:49 53.62296 -1.17729 34030 ft 492 kts 290°
2026-04-28 09:49 53.63013 -1.23368 33661 ft 491 kts 292°
2026-04-28 09:50 53.64051 -1.28770 32972 ft 478 kts 303°
2026-04-28 09:50 53.65571 -1.33663 32197 ft 465 kts 314°
2026-04-28 09:50 53.67548 -1.37879 31361 ft 452 kts 325°
2026-04-28 09:50 53.69893 -1.41291 30556 ft 439 kts 336°
2026-04-28 09:51 53.72438 -1.44061 29863 ft 431 kts 339°
2026-04-28 09:51 53.74980 -1.46648 29408 ft 421 kts 339°
2026-04-28 09:51 53.77471 -1.49167 28943 ft 414 kts 339°
2026-04-28 09:51 53.79923 -1.51653 28455 ft 408 kts 339°
2026-04-28 09:52 53.82343 -1.54115 27972 ft 402 kts 338°
2026-04-28 09:52 53.84724 -1.56544 27499 ft 397 kts 338°
2026-04-28 09:52 53.87073 -1.58946 27010 ft 392 kts 338°
2026-04-28 09:52 53.89372 -1.61301 26550 ft 387 kts 338°
2026-04-28 09:53 53.91666 -1.63656 26075 ft 384 kts 338°
2026-04-28 09:53 53.93948 -1.66000 25607 ft 382 kts 337°
2026-04-28 09:53 53.96215 -1.68332 25132 ft 380 kts 337°
2026-04-28 09:53 53.98472 -1.70657 24642 ft 378 kts 336°
2026-04-28 09:54 54.00716 -1.72973 24187 ft 376 kts 336°
2026-04-28 09:54 54.02917 -1.75247 23677 ft 374 kts 336°
2026-04-28 09:54 54.05162 -1.77569 23193 ft 371 kts 336°
2026-04-28 09:54 54.07332 -1.79814 22739 ft 369 kts 336°
2026-04-28 09:55 54.09511 -1.82071 22273 ft 366 kts 336°
2026-04-28 09:55 54.11710 -1.84218 21800 ft 359 kts 341°
2026-04-28 09:55 54.14022 -1.85585 21359 ft 346 kts 355°
2026-04-28 09:55 54.16377 -1.85856 20928 ft 334 kts
2026-04-28 09:56 54.18663 -1.85348 20502 ft 330 kts 14°
2026-04-28 09:56 54.20911 -1.84650 20076 ft 328 kts 15°
2026-04-28 09:56 54.23156 -1.83925 19651 ft 327 kts 15°
2026-04-28 09:56 54.25386 -1.83208 19221 ft 326 kts 14°
2026-04-28 09:57 54.27612 -1.82499 18803 ft 325 kts 14°
2026-04-28 09:57 54.29831 -1.81796 18338 ft 323 kts 14°
2026-04-28 09:57 54.32037 -1.81099 17911 ft 322 kts 14°
2026-04-28 09:57 54.34232 -1.80407 17501 ft 320 kts 14°
2026-04-28 09:58 54.36417 -1.79718 17130 ft 318 kts 14°
2026-04-28 09:58 54.38589 -1.79032 16777 ft 317 kts 14°
2026-04-28 09:58 54.40773 -1.78339 16506 ft 326 kts 14°
2026-04-28 09:58 54.43055 -1.77611 15753 ft 338 kts 14°
2026-04-28 09:59 54.45390 -1.76871 14946 ft 343 kts 13°
2026-04-28 09:59 54.47714 -1.76136 14225 ft 344 kts 13°
2026-04-28 09:59 54.50067 -1.75393 13460 ft 343 kts 13°
2026-04-28 09:59 54.52407 -1.74652 12823 ft 340 kts 13°
2026-04-28 10:00 54.54700 -1.73927 12389 ft 331 kts 13°
2026-04-28 10:00 54.56949 -1.73213 11836 ft 327 kts 13°
2026-04-28 10:00 54.59159 -1.72510 11427 ft 320 kts 14°
2026-04-28 10:00 54.61306 -1.71827 11176 ft 307 kts 14°
2026-04-28 10:01 54.63378 -1.71168 10863 ft 298 kts 14°
2026-04-28 10:01 54.65396 -1.70522 10500 ft 292 kts 14°
2026-04-28 10:01 54.67380 -1.69886 10097 ft 287 kts 14°
2026-04-28 10:01 54.69324 -1.69245 9728 ft 280 kts 17°
2026-04-28 10:02 54.70552 -1.68671 9596 ft 271 kts 20°
2026-04-28 10:02 54.72856 -1.67369 9364 ft 254 kts 22°
2026-04-28 10:02 54.74488 -1.66405 9164 ft 244 kts 22°
2026-04-28 10:02 54.76087 -1.65455 8785 ft 242 kts 22°
2026-04-28 10:03 54.77673 -1.64512 8419 ft 240 kts 22°
2026-04-28 10:03 54.78735 -1.63883 8169 ft 239 kts 22°
2026-04-28 10:03 54.80280 -1.62967 7816 ft 237 kts 22°
2026-04-28 10:03 54.81839 -1.62043 7434 ft 236 kts 22°
2026-04-28 10:04 54.83392 -1.61123 7043 ft 236 kts 22°
2026-04-28 10:04 54.84946 -1.60202 6700 ft 235 kts 22°
2026-04-28 10:04 54.86490 -1.59287 6293 ft 235 kts 22°
2026-04-28 10:04 54.88034 -1.58371 5911 ft 234 kts 21°
2026-04-28 10:05 54.89572 -1.57458 5552 ft 233 kts 22°
2026-04-28 10:05 54.91097 -1.56552 5202 ft 232 kts 22°
2026-04-28 10:05 54.92615 -1.55650 4837 ft 229 kts 21°
2026-04-28 10:05 54.94117 -1.54756 4506 ft 227 kts 21°
2026-04-28 10:06 54.95612 -1.53865 4138 ft 226 kts 21°
2026-04-28 10:06 54.97094 -1.52983 3799 ft 223 kts 21°
2026-04-28 10:06 54.98557 -1.52110 3374 ft 224 kts 21°
2026-04-28 10:06 55.00015 -1.51238 3043 ft 221 kts 20°
2026-04-28 10:07 55.01469 -1.50369 2650 ft 220 kts 19°
2026-04-28 10:07 55.02881 -1.49526 2369 ft 216 kts 19°
2026-04-28 10:07 55.04299 -1.48678 2095 ft 214 kts 19°
2026-04-28 10:07 55.05687 -1.47940 2036 ft 199 kts 11°
2026-04-28 10:08 55.07012 -1.48112 2026 ft 192 kts 340°
2026-04-28 10:08 55.08001 -1.49604 2022 ft 188 kts 302°
2026-04-28 10:08 55.08237 -1.51793 2036 ft 188 kts 265°
2026-04-28 10:08 55.07840 -1.53988 2037 ft 190 kts 249°
2026-04-28 10:09 55.07300 -1.55995 2022 ft 176 kts 246°
2026-04-28 10:09 55.06783 -1.57855 2036 ft 164 kts 247°
2026-04-28 10:09 55.06301 -1.59598 2032 ft 157 kts 247°
2026-04-28 10:09 55.05835 -1.61308 2019 ft 156 kts 248°
2026-04-28 10:10 55.05376 -1.63020 2020 ft 156 kts 249°
2026-04-28 10:10 55.04905 -1.64795 1443 ft 177 kts 248°
2026-04-28 10:10 55.04353 -1.66884 524 ft 196 kts 245°
2026-04-28 10:10 55.03796 -1.68973 265 ft 173 kts 246°
2026-04-28 10:11 55.03386 -1.70549 279 ft 97 kts 252°
2026-04-28 10:11 55.03945 -1.68413 262 ft 0 kts 243°
2026-04-28 10:12 55.03672 -1.70845 278 ft 0 kts
2026-04-28 10:12 55.03681 -1.70844 276 ft 0 kts
2026-04-28 10:13 55.03672 -1.70845 278 ft 0 kts